EHI
0 0 0 0 0 0 0 0 0 0 0 0 0 0 0 0 0 0 0 0 0 0 0 0 0 0 0 0 0 0 0 0 0 0 0 0 0 0 0 0 0 0 0
0 0 0 0 0 0 0 0 0 0 0 0 0 0 0 0 0 0 0 0 0 0 0 0 0 0 0 0 0 0 0 0 0 0 0 0 0 0 0 0 0 0 0
0 0 0 0 0 0 0 0 0 0 0 0 0 0 0 0 0 0 0 0 0 0 0 0 0 0 0 0 0 0 0 0 0 0 0 0 0 0 0 0 0 0 0
0 0 0 0 0 0 0 0 0 0 0 0 0 0 0 0 0 0 0 0 0 0 0 0 0 0 0 0 0 0 0 0 0 0 0 0 0 0 0 0 0 0 0
0 0 0 0 0 0 0 0 0 0 0 0 0 0 0 0 0 0 0 0 0 0 0 0 0 0 0 0 0 0 0 0 0 0 0 0 0 0 0 0 0 0 0
0 0 0 0 0 0 0 0 1 2 1 0 0 0 0 0 0 0 0 0 0 0 0 0 0 0 0 0 0 0 0 0 0 0 0 0 0 0 0 0 0 0 0
0 0 0 0 0 0 0 0 1 2 1 0 0 0 0 0 0 0 0 0 0 0 0 0 0 0 0 0 0 0 0 0 0 0 0 0 0 0 0 0 0 0 0
0 0 0 0 0 0 0 0 0 1 1 0 0 0 0 0 0 0 0 0 0 0 0 0 0 0 0 0 0 0 0 0 0 0 0 0 0 0 0 0 0 0 0
0 0 0 0 0 0 0 0 0 0 0 0 0 0 0 0 0 0 0 0 0 0 0 0 0 0 0 0 0 0 0 0 0 0 0 0 0 0 0 0 0 0 0
0 0 0 0 0 0 0 0 0 0 0 0 0 0 0 0 0 1 1 0 0 0 0 0 0 0 0 0 0 0 0 0 0 0 0 0 0 0 0 0 0 0 0
0 0 0 0 0 0 0 0 0 0 0 0 0 0 0 1 1 1 2 1 0 0 0 0 0 0 0 0 0 0 0 0 0 0 0 0 0 0 0 0 0 0 0
0 0 0 0 0 0 0 0 0 0 0 0 0 0 0 0 0 1 1 1 0 0 0 0 0 0 0 0 0 0 0 0 0 0 0 0 0 0 0 0 0 0 0
0 0 0 1 1 1 0 0 0 0 0 0 0 0 0 0 0 0 0 0 0 0 0 0 0 0 0 0 0 0 0 0 0 0 0 0 0 0 0 0 0 0 0
0 0 0 1 2 1 0 0 0 0 0 0 0 0 0 0 0 0 0 0 0 0 0 0 0 0 0 0 0 0 0 0 0 0 0 0 0 0 0 0 0 0 0
0 0 0 2 2 1 1 1 0 0 0 0 0 0 0 0 0 0 0 0 0 0 0 0 0 0 0 0 0 0 0 0 0 0 0 0 0 0 0 0 0 0 0
0 0 0 1 2 2 2 1 0 0 0 0 0 0 0 0 0 0 0 0 0 0 0 0 0 0 0 0 0 0 0 0 0 0 0 0 0 0 0 0 0 0 0
0 0 0 0 1 1 1 1 0 0 0 0 0 0 0 0 0 0 0 0 0 0 0 0 0 0 0 0 0 0 0 0 0 0 0 0 0 0 0 0 0 0 0
0 0 0 0 0 0 0 0 0 0 0 0 0 0 0 0 0 0 0 0 0 0 0 0 0 0 0 0 0 0 0 0 0 0 0 0 0 0 0 0 0 0 0
0 0 0 0 0 0 0 0 0 1 1 1 0 0 0 0 0 0 0 0 0 0 0 0 0 0 0 0 0 0 0 0 0 0 0 0 0 0 0 0 0 0 0
0 0 0 0 0 0 0 0 1 2 2 1 0 0 0 0 0 0 0 0 0 0 0 0 0 0 0 0 0 0 0 0 0 0 0 0 0 0 0 0 0 0 0
0 0 0 0 0 0 0 0 1 3 3 1 0 0 0 0 0 0 0 0 0 0 0 0 0 0 0 0 0 0 0 0 0 0 0 0 0 0 0 0 0 0 0
0 0 0 0 0 0 0 1 2 3 2 1 0 0 0 0 0 0 0 0 0 0 0 0 0 0 0 0 0 0 0 0 0 0 0 0 0 0 0 0 0 0 0
0 0 0 0 0 0 0 1 3 3 2 1 0 0 0 0 0 0 0 0 0 0 0 0 0 0 0 0 0 0 0 0 0 0 0 0 0 0 0 0 0 0 0
0 0 0 0 0 0 1 2 3 3 2 1 0 0 0 0 0 0 1 1 0 0 0 0 0 0 0 0 0 0 0 0 0 0 0 0 0 0 0 0 0 0 0
0 1 1 1 1 1 2 3 2 1 1 0 0 0 0 0 0 0 1 1 0 0 0 0 0 0 0 0 0 0 0 0 0 0 0 0 0 0 0 0 0 0 0
1 2 2 2 2 2 3 3 1 0 0 0 0 0 0 0 0 0 1 1 0 0 0 0 0 0 0 0 0 0 0 0 0 0 0 0 0 0 0 0 0 0 0
Wind_Speed
8 7 8 8 8 8 7 7 7 6 4 4 3 3 3 2 3 3 4 4 4 4 4 2 3 2 3 3 4 5 6 4 3 4 5 6 6 6 5 5 6 7 8
9 8 8 9 9 9 8 8 7 6 5 3 3 2 3 2 3 2 3 4 4 3 3 3 3 3 3 4 4 3 2 3 1 1 2 3 4 4 5 5 5 6 6
10 10 10 10 10 10 9 7 7 7 6 5 4 3 3 3 3 3 2 3 3 3 3 4 3 3 3 3 2 2 2 2 2 2 2 1 2 3 4 6 5 5 5
10 10 10 10 10 10 9 9 8 7 7 7 5 5 3 3 3 2 3 4 3 3 3 4 3 3 2 3 2 2 1 1 1 2 2 3 2 0 3 4 4 5 6
11 11 11 11 10 10 9 8 8 8 7 7 6 5 4 3 3 3 4 4 4 3 3 3 3 3 3 3 3 2 1 1 1 1 2 2 1 1 1 3 3 4 4
10 10 10 10 9 9 9 9 9 8 7 7 7 6 5 5 5 4 4 3 3 3 4 3 3 3 3 3 2 2 2 2 2 1 1 1 1 1 1 1 2 3 4
10 10 10 10 10 10 10 10 10 9 8 9 8 7 6 6 6 5 4 4 3 3 3 3 3 3 3 3 3 3 3 2 2 2 2 2 2 1 1 1 2 2 3
10 10 11 11 10 11 11 11 11 10 9 8 8 7 7 5 4 4 4 4 3 3 3 3 3 3 3 3 3 2 3 3 3 3 3 2 2 1 1 1 1 1 2
10 10 10 10 10 11 11 11 11 10 9 9 8 7 7 6 5 6 5 3 4 3 4 4 4 4 3 3 3 2 3 2 2 2 3 2 2 1 1 1 1 1 0
9 10 10 10 10 10 10 10 11 10 9 9 8 6 7 6 6 6 6 5 5 5 5 4 4 4 4 3 3 3 2 3 3 2 2 2 2 2 1 1 1 2 2
9 9 9 9 9 9 10 10 10 10 9 9 8 8 7 7 7 6 6 5 5 5 5 4 4 4 3 3 3 3 3 3 3 3 3 3 3 2 2 1 1 2 2
8 8 9 9 9 10 10 10 10 10 9 9 8 8 7 7 7 7 6 6 6 5 4 4 4 4 3 3 3 3 3 3 3 3 3 3 2 2 2 1 1 1 1
7 8 8 9 9 10 10 10 10 10 9 9 9 8 8 8 8 7 7 6 6 5 5 5 5 4 4 4 3 3 3 3 2 3 3 2 2 2 2 1 1 1 1
7 8 8 8 9 9 10 10 10 10 9 9 9 8 8 8 7 7 7 6 6 6 6 5 5 5 4 4 4 3 3 3 3 2 2 2 1 1 1 1 1 1 1
7 8 8 8 9 9 9 10 10 10 10 10 9 9 8 7 7 7 7 6 6 6 6 6 5 5 4 3 3 4 3 3 3 3 3 3 4 5 3 1 1 1 1
7 8 8 9 10 10 9 9 10 10 10 10 9 8 8 8 7 7 7 7 6 6 6 6 6 5 3 4 2 2 4 4 4 3 3 4 4 4 4 3 3 3 1
7 7 8 9 10 10 10 10 10 9 10 10 9 9 9 8 8 7 7 7 7 6 6 6 6 5 5 6 5 3 3 3 3 3 3 2 2 2 3 4 4 2 2
7 7 7 8 9 10 10 9 9 10 10 9 10 9 9 9 8 8 7 7 6 6 5 5 5 5 5 7 6 5 5 3 3 3 2 2 2 1 1 1 2 1 1
5 6 7 7 8 9 9 10 10 10 9 9 9 9 9 9 9 8 8 7 7 6 6 5 5 5 6 7 7 6 4 3 3 3 2 2 2 3 1 2 2 1 1
3 4 5 7 7 8 9 10 10 10 10 10 9 9 9 9 9 9 8 6 6 6 6 5 6 6 5 8 7 6 4 4 3 3 3 1 1 2 2 3 2 2 1
2 4 5 6 7 8 10 10 10 10 10 9 9 9 9 9 9 8 7 7 6 6 6 6 5 4 4 7 7 6 4 3 3 3 3 3 5 3 3 3 2 1 2
2 4 5 6 6 8 10 10 10 9 9 9 9 8 8 8 8 8 7 7 7 7 6 5 5 3 4 4 6 6 4 3 3 2 2 3 6 5 4 3 1 1 2
3 3 5 6 6 7 9 10 9 9 9 9 9 8 8 7 7 8 8 7 7 6 6 5 5 4 4 4 6 7 6 4 3 1 2 3 5 5 4 4 3 3 3
3 4 5 6 6 7 8 7 8 9 10 10 9 8 8 7 7 6 7 7 7 6 6 6 5 4 4 4 5 5 6 7 5 4 4 6 5 4 2 4 4 3 2
3 4 4 5 6 6 7 7 8 9 10 10 9 8 7 7 6 6 4 6 6 5 6 6 5 5 5 5 5 5 5 5 4 4 4 4 4 4 4 3 3 3 3
4 4 4 4 5 6 7 7 7 9 9 8 8 7 6 6 5 5 4 2 2 3 3 2 3 4 3 5 7 6 4 4 6 5 4 4 4 4 4 3 3 3 3
Wind_Direction
182 177 179 178 180 178 173 163 163 157 159 153 152 145 130 120 102 82 73 71 63 64 72 69 84 89 96 102 114 115 115 111 111 113 105 91 71 66 64 54 56 62 57
182 178 184 184 185 180 176 173 171 166 166 159 148 138 129 118 93 89 77 75 76 68 71 80 92 97 102 108 109 120 121 109 135 165 150 136 118 77 63 63 57 57 57
196 185 188 189 188 187 181 180 176 171 168 164 154 147 142 148 138 125 103 82 81 79 75 79 81 87 101 106 113 125 127 120 107 12 336 8 82 110 88 66 61 55 51
199 191 191 193 192 190 183 185 184 179 175 176 178 176 173 158 143 134 123 118 101 91 83 86 85 86 90 106 119 114 117 128 118 92 26 22 52 76 120 102 77 64 52
199 195 196 196 194 189 186 190 190 188 184 186 176 189 179 161 153 146 136 134 113 98 96 91 90 88 85 92 93 91 79 82 64 81 96 88 87 9 83 105 104 90 66
200 198 193 191 189 186 186 190 192 190 187 187 185 189 176 173 165 161 151 147 130 113 105 102 98 91 84 88 91 98 92 59 58 48 65 74 61 88 85 107 114 95 82
198 195 191 188 187 185 187 190 191 190 189 191 189 185 184 185 177 168 162 159 143 131 121 123 110 94 90 91 94 91 83 80 70 58 53 42 30 32 65 113 106 103 108
197 196 194 191 190 189 187 191 192 191 189 193 191 189 182 189 176 174 167 160 146 136 133 129 113 105 104 103 95 91 86 82 82 72 71 71 59 48 53 72 135 149 129
196 197 194 191 191 191 191 192 190 189 190 191 190 189 186 186 178 176 169 159 148 140 145 141 128 117 113 109 113 103 103 93 83 83 87 76 75 64 44 43 312 308 171
195 197 198 196 195 192 190 190 192 189 189 190 188 183 185 182 180 175 169 163 157 152 153 150 139 130 125 123 116 109 97 106 94 77 77 74 77 73 69 43 8 341 346
194 196 197 197 193 188 186 188 190 189 187 187 184 183 179 179 178 178 170 167 165 165 162 155 150 138 134 131 131 128 123 119 117 114 106 97 83 90 85 69 56 28 23
193 193 192 190 188 188 187 188 189 188 185 182 181 182 178 177 181 177 173 173 169 169 165 161 157 147 142 136 134 133 137 131 128 121 111 104 100 92 79 73 76 57 18
190 190 188 186 187 188 188 188 189 187 181 179 180 180 183 181 181 178 175 178 175 171 169 169 163 158 152 148 148 145 140 134 131 123 115 109 114 121 108 104 89 76 67
189 189 189 190 188 188 187 187 186 184 181 179 180 182 183 180 181 181 179 180 177 176 172 169 165 163 162 163 160 155 150 139 125 116 113 109 112 103 120 130 108 109 112
190 193 195 195 189 188 187 185 184 183 181 181 183 183 180 175 176 177 178 176 176 176 171 168 166 164 169 171 174 163 159 153 138 127 112 87 68 43 36 27 55 129 178
195 194 196 196 192 189 188 184 183 184 183 183 183 177 176 171 173 177 175 170 174 178 174 175 170 167 165 127 142 203 167 163 157 148 139 133 138 117 109 69 42 11 324
206 201 200 197 194 191 187 187 184 182 184 183 177 175 174 171 172 173 169 169 175 177 180 177 172 172 152 147 162 209 192 171 168 166 156 146 134 181 153 151 165 137 21
212 205 201 199 195 189 186 184 179 179 182 180 177 175 174 171 170 173 172 175 173 170 180 174 174 168 154 155 164 187 197 181 172 175 180 181 168 151 210 177 158 128 113
215 207 201 194 189 185 180 178 177 179 182 180 179 176 174 172 171 174 175 176 172 169 175 171 173 174 163 159 167 189 184 186 181 177 183 198 182 121 211 213 191 177 141
208 201 194 185 183 183 178 178 179 181 185 183 181 176 176 175 175 175 173 171 170 170 172 172 178 179 171 154 170 202 195 189 180 172 172 149 206 139 203 224 223 233 242
193 188 185 181 181 179 179 183 184 188 186 180 178 175 175 177 174 170 170 167 168 170 175 171 173 178 170 157 168 199 213 196 191 185 180 149 154 174 198 253 260 281 289
168 174 175 176 175 178 181 183 187 185 176 174 176 175 175 173 170 166 166 168 168 169 173 173 170 179 176 171 171 185 210 245 206 199 186 146 154 174 197 217 187 225 258
166 171 173 170 173 180 185 185 180 174 171 169 173 173 171 170 169 169 169 170 173 179 180 180 184 184 182 169 168 179 187 210 215 183 101 123 157 181 189 188 202 220 238
173 169 171 175 176 181 188 186 170 169 170 171 172 171 171 169 170 173 176 178 180 184 187 188 190 186 183 187 183 182 181 183 195 194 159 167 183 208 207 191 202 223 241
180 182 182 183 179 176 180 175 171 171 172 173 172 170 171 169 172 175 182 189 190 193 192 193 192 190 196 191 182 187 188 188 186 181 189 199 198 206 210 212 216 222 222
182 190 192 186 178 172 170 168 171 175 174 172 171 170 168 169 171 171 166 131 173 147 173 185 198 194 181 153 165 177 176 163 165 185 204 213 217 222 224 225 223 225 233